TimeEST,TemperatureF,Dew PointF,Humidity,Sea Level PressureIn,VisibilityMPH,Wind Direction,Wind SpeedMPH,Gust SpeedMPH,PrecipitationIn,Events,Conditions,WindDirDegrees,DateUTC
12:53 AM,28.9,27.0,92,29.95,6.0,SSE,4.6,-,N/A,,Overcast,150,2011-11-25 05:53:00
1:53 AM,30.2,28.4,93,29.89,6.0,SSE,4.6,-,N/A,,Overcast,150,2011-11-25 06:53:00
2:53 AM,30.2,28.4,93,29.90,7.0,South,6.9,-,N/A,,Overcast,170,2011-11-25 07:53:00
3:35 AM,30.2,28.4,93,29.89,7.0,SSE,6.9,-,N/A,,Overcast,160,2011-11-25 08:35:00
3:53 AM,30.0,28.9,96,29.92,7.0,SSE,6.9,-,N/A,,Overcast,150,2011-11-25 08:53:00
4:53 AM,30.0,28.9,96,29.90,8.0,South,6.9,-,N/A,,Overcast,170,2011-11-25 09:53:00
5:49 AM,30.2,30.2,100,29.87,6.0,South,9.2,-,N/A,,Overcast,190,2011-11-25 10:49:00
5:53 AM,30.9,30.0,96,29.90,5.0,South,10.4,-,N/A,,Overcast,190,2011-11-25 10:53:00
6:19 AM,30.2,30.2,100,29.86,3.0,South,9.2,-,N/A,,Overcast,180,2011-11-25 11:19:00
6:28 AM,30.2,30.2,100,29.86,2.0,South,9.2,-,N/A,,Overcast,180,2011-11-25 11:28:00
6:32 AM,30.2,30.2,100,29.87,1.5,South,6.9,-,N/A,,Overcast,190,2011-11-25 11:32:00
6:41 AM,32.0,32.0,100,29.87,1.0,South,6.9,-,N/A,,Mist,190,2011-11-25 11:41:00
6:50 AM,32.0,32.0,100,29.86,0.5,South,6.9,-,N/A,Fog,Fog,180,2011-11-25 11:50:00
6:53 AM,32.0,32.0,100,29.86,0.5,South,6.9,-,N/A,Fog,Fog,180,2011-11-25 11:53:00
7:53 AM,32.0,32.0,100,29.89,0.2,South,8.1,-,N/A,Fog,Fog,180,2011-11-25 12:53:00
8:53 AM,33.1,33.1,100,29.88,0.2,South,5.8,-,N/A,Fog,Fog,180,2011-11-25 13:53:00
9:53 AM,33.1,33.1,100,29.88,0.2,South,6.9,-,N/A,Fog,Fog,190,2011-11-25 14:53:00
10:53 AM,33.8,33.8,100,29.82,0.2,Variable,4.6,-,N/A,Fog,Fog,0,2011-11-25 15:53:00
11:53 AM,33.8,33.8,100,29.79,0.2,South,8.1,-,N/A,Fog,Fog,180,2011-11-25 16:53:00
12:53 PM,34.0,34.0,100,29.80,0.2,South,8.1,-,N/A,Fog,Fog,180,2011-11-25 17:53:00
1:53 PM,35.1,35.1,100,29.78,0.2,South,5.8,-,N/A,Fog,Fog,180,2011-11-25 18:53:00
2:40 PM,35.6,35.6,100,29.76,1.0,SSW,6.9,-,N/A,,Overcast,210,2011-11-25 19:40:00
2:43 PM,35.6,35.6,100,29.76,2.0,SSW,6.9,-,N/A,,Overcast,210,2011-11-25 19:43:00
2:53 PM,36.0,35.1,97,29.79,3.0,SSW,8.1,-,N/A,,Overcast,210,2011-11-25 19:53:00
3:53 PM,37.4,35.6,93,29.76,9.0,WSW,12.7,-,N/A,,Overcast,250,2011-11-25 20:53:00
4:53 PM,37.9,34.0,86,29.78,9.0,WSW,12.7,21.9,N/A,,Overcast,250,2011-11-25 21:53:00
5:02 PM,37.4,33.8,87,29.76,9.0,West,16.1,23.0,N/A,,Overcast,260,2011-11-25 22:02:00
5:53 PM,37.0,33.1,86,29.79,9.0,West,15.0,-,N/A,,Overcast,270,2011-11-25 22:53:00
6:53 PM,37.9,34.0,86,29.80,9.0,West,8.1,-,N/A,,Overcast,280,2011-11-25 23:53:00
7:01 PM,37.4,33.8,87,29.77,8.0,West,9.2,-,N/A,,Overcast,270,2011-11-26 00:01:00
7:44 PM,37.4,33.8,87,29.76,8.0,WSW,9.2,-,N/A,,Overcast,250,2011-11-26 00:44:00
7:53 PM,37.0,34.0,89,29.79,8.0,West,8.1,-,N/A,,Overcast,260,2011-11-26 00:53:00
8:53 PM,37.9,35.1,89,29.79,8.0,West,6.9,-,N/A,,Overcast,270,2011-11-26 01:53:00
9:08 PM,37.4,35.6,93,29.77,8.0,West,5.8,-,N/A,,Overcast,260,2011-11-26 02:08:00
9:53 PM,37.0,35.1,93,29.81,7.0,WSW,3.5,-,N/A,,Overcast,250,2011-11-26 02:53:00
10:53 PM,37.9,35.1,89,29.81,8.0,WSW,6.9,-,N/A,,Overcast,250,2011-11-26 03:53:00
11:53 PM,37.9,35.1,89,29.82,8.0,SW,6.9,-,N/A,,Overcast,230,2011-11-26 04:53:00